AXM5322 WMKP-WBKK

Flight info

Callsign AXM5322
Flight time 2h 30m
Altitude 37000
Route BOGUK DCT ANBIK Y507 VBA G582 VPK M758 VIDIP DCT EGENU
Aircraft A20N/M-SDE2E3FGHIRWXY/LB1

Departure

Time 2026-04-26 08:59
Airport Penang International Airport (WMKP)

Arrival

Time 2026-04-26 11:30
Airport Kota Kinabalu International Airport (WBKK)
Time Latitude Longitude Altitude Speed Heading
2026-04-26 08:26 5.29328 100.26751 26 ft 0 kts 310°
2026-04-26 08:43 5.29328 100.26752 26 ft 1 kts 310°
2026-04-26 08:43 5.29318 100.26763 26 ft 2 kts 310°
2026-04-26 08:43 5.29308 100.26775 25 ft 2 kts 310°
2026-04-26 08:44 5.29299 100.26786 25 ft 2 kts 310°
2026-04-26 08:44 5.29287 100.26796 25 ft 2 kts 332°
2026-04-26 08:44 5.29274 100.26801 25 ft 2 kts 347°
2026-04-26 08:44 5.29258 100.26803 25 ft 2 kts
2026-04-26 08:45 5.29244 100.26801 25 ft 2 kts 20°
2026-04-26 08:45 5.29230 100.26793 25 ft 2 kts 37°
2026-04-26 08:45 5.29224 100.26788 25 ft 1 kts 45°
2026-04-26 08:45 5.29222 100.26786 25 ft 0 kts 43°
2026-04-26 08:50 5.29222 100.26787 25 ft 0 kts 43°
2026-04-26 08:50 5.29230 100.26794 25 ft 2 kts 43°
2026-04-26 08:50 5.29249 100.26814 25 ft 4 kts 61°
2026-04-26 08:51 5.29198 100.26895 23 ft 9 kts 131°
2026-04-26 08:51 5.29197 100.26957 22 ft 11 kts 41°
2026-04-26 08:51 5.29259 100.27013 21 ft 12 kts 42°
2026-04-26 08:52 5.29327 100.27074 21 ft 13 kts 42°
2026-04-26 08:52 5.29394 100.27135 22 ft 13 kts 42°
2026-04-26 08:52 5.29467 100.27201 21 ft 14 kts 43°
2026-04-26 08:52 5.29542 100.27270 21 ft 14 kts 42°
2026-04-26 08:53 5.29620 100.27340 21 ft 15 kts 42°
2026-04-26 08:53 5.29700 100.27412 21 ft 15 kts 43°
2026-04-26 08:53 5.29781 100.27486 21 ft 15 kts 42°
2026-04-26 08:53 5.29863 100.27560 21 ft 16 kts 43°
2026-04-26 08:54 5.29946 100.27636 21 ft 16 kts 41°
2026-04-26 08:54 5.30030 100.27711 21 ft 16 kts 41°
2026-04-26 08:54 5.30112 100.27792 22 ft 16 kts 45°
2026-04-26 08:54 5.30195 100.27873 22 ft 16 kts 44°
2026-04-26 08:55 5.30278 100.27955 22 ft 16 kts 45°
2026-04-26 08:55 5.30362 100.28038 22 ft 16 kts 45°
2026-04-26 08:55 5.30447 100.28121 22 ft 17 kts 43°
2026-04-26 08:55 5.30535 100.28201 22 ft 17 kts 42°
2026-04-26 08:56 5.30623 100.28281 22 ft 17 kts 42°
2026-04-26 08:56 5.30712 100.28361 22 ft 17 kts 41°
2026-04-26 08:56 5.30802 100.28442 22 ft 17 kts 42°
2026-04-26 08:56 5.30885 100.28521 22 ft 13 kts 45°
2026-04-26 08:57 5.30903 100.28603 22 ft 10 kts 111°
2026-04-26 08:57 5.30899 100.28612 22 ft 0 kts 116°
2026-04-26 08:57 5.30899 100.28613 22 ft 0 kts 116°
2026-04-26 08:57 5.30894 100.28622 22 ft 1 kts 116°
2026-04-26 08:58 5.30884 100.28638 22 ft 3 kts 132°
2026-04-26 08:58 5.30854 100.28654 22 ft 6 kts 163°
2026-04-26 08:58 5.30800 100.28657 22 ft 8 kts 193°
2026-04-26 08:58 5.30723 100.28597 22 ft 31 kts 221°
2026-04-26 08:59 5.30385 100.28284 20 ft 98 kts 221°
2026-04-26 08:59 5.29737 100.27707 22 ft 150 kts 222°
2026-04-26 08:59 5.28868 100.26911 174 ft 178 kts 221°
2026-04-26 08:59 5.27948 100.26110 817 ft 174 kts 221°
2026-04-26 09:00 5.27041 100.25342 1463 ft 171 kts 212°
2026-04-26 09:00 5.25917 100.25131 1965 ft 168 kts 165°
2026-04-26 09:00 5.24812 100.25594 2236 ft 180 kts 151°
2026-04-26 09:00 5.23646 100.26223 2513 ft 194 kts 151°
2026-04-26 09:01 5.22392 100.26868 2731 ft 214 kts 153°
2026-04-26 09:01 5.20972 100.27543 3055 ft 231 kts 154°
2026-04-26 09:01 5.19446 100.28232 3383 ft 249 kts 155°
2026-04-26 09:01 5.17803 100.28951 3735 ft 265 kts 155°
2026-04-26 09:02 5.16094 100.29689 4296 ft 273 kts 155°
2026-04-26 09:02 5.14333 100.30444 4997 ft 275 kts 155°
2026-04-26 09:02 5.12567 100.31198 5700 ft 278 kts 154°
2026-04-26 09:02 5.10765 100.31969 6423 ft 280 kts 154°
2026-04-26 09:03 5.08969 100.32739 7126 ft 283 kts 154°
2026-04-26 09:03 5.07142 100.33543 7823 ft 285 kts 149°
2026-04-26 09:03 5.05652 100.34801 8472 ft 283 kts 122°
2026-04-26 09:03 5.04889 100.36594 9164 ft 281 kts 100°
2026-04-26 09:04 5.04545 100.38504 9827 ft 282 kts 99°
2026-04-26 09:04 5.04193 100.40447 10402 ft 288 kts 99°
2026-04-26 09:04 5.03819 100.42457 10708 ft 303 kts 99°
2026-04-26 09:04 5.03416 100.44595 10992 ft 319 kts 99°
2026-04-26 09:05 5.02985 100.46846 11258 ft 334 kts 100°
2026-04-26 09:05 5.02529 100.49207 11502 ft 349 kts 100°
2026-04-26 09:05 5.02031 100.51643 11873 ft 359 kts 104°
2026-04-26 09:05 5.01040 100.53966 12414 ft 364 kts 117°
2026-04-26 09:06 4.99757 100.56162 12976 ft 366 kts 120°
2026-04-26 09:06 4.98447 100.58337 13490 ft 370 kts 119°
2026-04-26 09:06 4.97122 100.60577 14021 ft 373 kts 119°
2026-04-26 09:06 4.95822 100.62814 14525 ft 375 kts 118°
2026-04-26 09:07 4.94508 100.65109 15044 ft 377 kts 118°
2026-04-26 09:07 4.93221 100.67379 15552 ft 379 kts 118°
2026-04-26 09:07 4.91899 100.69722 16060 ft 381 kts 117°
2026-04-26 09:07 4.90579 100.72070 16531 ft 384 kts 117°
2026-04-26 09:08 4.89255 100.74431 16980 ft 386 kts 117°
2026-04-26 09:08 4.87950 100.76762 17429 ft 389 kts 117°
2026-04-26 09:08 4.86614 100.79149 17881 ft 391 kts 117°
2026-04-26 09:08 4.85267 100.81554 18330 ft 394 kts 117°
2026-04-26 09:09 4.83924 100.83957 18745 ft 396 kts 117°
2026-04-26 09:09 4.82573 100.86371 19144 ft 399 kts 117°
2026-04-26 09:09 4.81202 100.88822 19555 ft 402 kts 117°
2026-04-26 09:09 4.79824 100.91285 19957 ft 404 kts 117°
2026-04-26 09:10 4.78433 100.93771 20361 ft 407 kts 117°
2026-04-26 09:10 4.77058 100.96229 20749 ft 409 kts 117°
2026-04-26 09:10 4.75659 100.98729 21137 ft 411 kts 117°
2026-04-26 09:10 4.74258 101.01230 21519 ft 413 kts 117°
2026-04-26 09:11 4.72837 101.03767 21888 ft 416 kts 117°
2026-04-26 09:11 4.71415 101.06307 22262 ft 418 kts 117°
2026-04-26 09:11 4.69992 101.08849 22621 ft 420 kts 117°
2026-04-26 09:11 4.68566 101.11397 22937 ft 423 kts 117°
2026-04-26 09:12 4.67104 101.14008 23260 ft 426 kts 117°
2026-04-26 09:12 4.65644 101.16615 23586 ft 429 kts 117°
2026-04-26 09:12 4.64164 101.19257 23910 ft 431 kts 117°
2026-04-26 09:12 4.62691 101.21889 24215 ft 434 kts 117°
2026-04-26 09:13 4.61225 101.24504 24525 ft 436 kts 117°
2026-04-26 09:13 4.59737 101.27158 24847 ft 438 kts 117°
2026-04-26 09:13 4.58245 101.29823 25153 ft 440 kts 117°
2026-04-26 09:13 4.56735 101.32517 25432 ft 442 kts 117°
2026-04-26 09:14 4.55220 101.35218 25712 ft 444 kts 117°
2026-04-26 09:14 4.53693 101.37942 25994 ft 446 kts 117°
2026-04-26 09:14 4.52152 101.40690 26274 ft 448 kts 117°
2026-04-26 09:14 4.50628 101.43408 26533 ft 451 kts 117°
2026-04-26 09:15 4.49081 101.46168 26790 ft 453 kts 117°
2026-04-26 09:15 4.47533 101.48929 27030 ft 455 kts 117°
2026-04-26 09:15 4.45972 101.51710 27274 ft 457 kts 117°
2026-04-26 09:15 4.44414 101.54488 27525 ft 459 kts 117°
2026-04-26 09:16 4.42837 101.57299 27737 ft 461 kts 118°
2026-04-26 09:16 4.41260 101.60111 27853 ft 466 kts 117°
2026-04-26 09:16 4.39655 101.62972 28043 ft 468 kts 118°
2026-04-26 09:16 4.38057 101.65817 28330 ft 468 kts 118°
2026-04-26 09:17 4.36458 101.68665 28656 ft 467 kts 118°
2026-04-26 09:17 4.34859 101.71511 28970 ft 466 kts 118°
2026-04-26 09:17 4.33272 101.74339 29284 ft 465 kts 118°
2026-04-26 09:17 4.31691 101.77155 29602 ft 464 kts 118°
2026-04-26 09:18 4.30110 101.79971 29915 ft 463 kts 118°
2026-04-26 09:18 4.28522 101.82800 30223 ft 462 kts 118°
2026-04-26 09:18 4.26957 101.85585 30535 ft 461 kts 118°
2026-04-26 09:18 4.25376 101.88402 30857 ft 460 kts 118°
2026-04-26 09:19 4.23798 101.91210 31183 ft 458 kts 118°
2026-04-26 09:19 4.22246 101.93974 31501 ft 457 kts 118°
2026-04-26 09:19 4.20676 101.96766 31829 ft 455 kts 118°
2026-04-26 09:19 4.19128 101.99522 32143 ft 454 kts 118°
2026-04-26 09:20 4.17597 102.02247 32449 ft 452 kts 118°
2026-04-26 09:20 4.16047 102.05006 32785 ft 450 kts 118°
2026-04-26 09:20 4.14510 102.07740 33077 ft 450 kts 118°
2026-04-26 09:20 4.12972 102.10479 33330 ft 450 kts 118°
2026-04-26 09:21 4.11441 102.13203 33572 ft 450 kts 118°
2026-04-26 09:21 4.09911 102.15923 33838 ft 449 kts 118°
2026-04-26 09:21 4.08364 102.18675 34070 ft 450 kts 118°
2026-04-26 09:21 4.06831 102.21402 34305 ft 450 kts 118°
2026-04-26 09:22 4.05300 102.24126 34531 ft 450 kts 118°
2026-04-26 09:22 4.03762 102.26858 34763 ft 449 kts 118°
2026-04-26 09:22 4.02239 102.29565 34985 ft 449 kts 118°
2026-04-26 09:22 4.00703 102.32297 35165 ft 450 kts 119°
2026-04-26 09:23 3.99168 102.35025 35288 ft 451 kts 118°
2026-04-26 09:23 3.97625 102.37766 35432 ft 452 kts 119°
2026-04-26 09:23 3.96076 102.40520 35572 ft 453 kts 119°
2026-04-26 09:23 3.94521 102.43286 35708 ft 454 kts 119°
2026-04-26 09:24 3.92973 102.46036 35858 ft 454 kts 119°
2026-04-26 09:24 3.91411 102.48811 35974 ft 455 kts 119°
2026-04-26 09:24 3.89866 102.51559 36107 ft 455 kts 119°
2026-04-26 09:24 3.88307 102.54326 36268 ft 454 kts 119°
2026-04-26 09:25 3.86747 102.57094 36410 ft 454 kts 119°
2026-04-26 09:25 3.85202 102.59837 36530 ft 454 kts 119°
2026-04-26 09:25 3.83644 102.62603 36627 ft 455 kts 119°
2026-04-26 09:26 3.80526 102.68137 36793 ft 456 kts 119°
2026-04-26 09:26 3.77400 102.73689 36840 ft 457 kts 119°
2026-04-26 09:27 3.74284 102.79221 36853 ft 458 kts 119°
2026-04-26 09:27 3.71159 102.84766 36859 ft 458 kts 119°
2026-04-26 09:28 3.68024 102.90327 36856 ft 458 kts 119°
2026-04-26 09:28 3.64884 102.95899 36851 ft 457 kts 119°
2026-04-26 09:29 3.61753 103.01450 36842 ft 458 kts 119°
2026-04-26 09:29 3.58636 103.06977 36830 ft 458 kts 119°
2026-04-26 09:30 3.55504 103.12532 36814 ft 458 kts 119°
2026-04-26 09:30 3.52364 103.18101 36806 ft 458 kts 119°
2026-04-26 09:31 3.49240 103.23637 36800 ft 458 kts 119°
2026-04-26 09:31 3.46106 103.29193 36801 ft 458 kts 119°
2026-04-26 09:32 3.43012 103.34786 36800 ft 457 kts 116°
2026-04-26 09:32 3.40686 103.40694 36803 ft 457 kts 106°
2026-04-26 09:33 3.39418 103.46905 36806 ft 457 kts 96°
2026-04-26 09:33 3.39225 103.53257 36808 ft 457 kts 88°
2026-04-26 09:34 3.39502 103.59613 36808 ft 457 kts 88°
2026-04-26 09:34 3.39784 103.65944 36811 ft 457 kts 88°
2026-04-26 09:35 3.40052 103.72304 36813 ft 457 kts 88°
2026-04-26 09:35 3.40312 103.78614 36814 ft 456 kts 88°
2026-04-26 09:36 3.40572 103.84970 36816 ft 456 kts 88°
2026-04-26 09:36 3.40831 103.91289 36816 ft 456 kts 88°
2026-04-26 09:37 3.41122 103.97598 36817 ft 455 kts 87°
2026-04-26 09:37 3.41447 104.03949 36815 ft 455 kts 87°
2026-04-26 09:38 3.41760 104.10222 36807 ft 455 kts 87°
2026-04-26 09:38 3.42081 104.16557 36797 ft 455 kts 87°
2026-04-26 09:39 3.42401 104.22862 36795 ft 455 kts 87°
2026-04-26 09:39 3.42719 104.29174 36794 ft 455 kts 87°
2026-04-26 09:40 3.43039 104.35503 36794 ft 455 kts 87°
2026-04-26 09:40 3.43356 104.41821 36794 ft 455 kts 87°
2026-04-26 09:41 3.43673 104.48143 36794 ft 454 kts 87°
2026-04-26 09:41 3.43990 104.54437 36794 ft 454 kts 87°
2026-04-26 09:42 3.44316 104.60713 36794 ft 454 kts 87°
2026-04-26 09:42 3.44644 104.67062 36795 ft 453 kts 87°
2026-04-26 09:43 3.44967 104.73328 36796 ft 454 kts 87°
2026-04-26 09:43 3.45291 104.79635 36796 ft 455 kts 87°
2026-04-26 09:44 3.45613 104.85924 36795 ft 454 kts 87°
2026-04-26 09:44 3.45937 104.92262 36796 ft 454 kts 87°
2026-04-26 09:45 3.46258 104.98555 36803 ft 454 kts 87°
2026-04-26 09:45 3.46578 105.04836 36811 ft 453 kts 87°
2026-04-26 09:46 3.46896 105.11134 36815 ft 453 kts 87°
2026-04-26 09:46 3.47214 105.17406 36815 ft 454 kts 87°
2026-04-26 09:47 3.47537 105.23734 36815 ft 453 kts 87°
2026-04-26 09:47 3.47858 105.30019 36815 ft 453 kts 87°
2026-04-26 09:48 3.48178 105.36310 36815 ft 453 kts 87°
2026-04-26 09:48 3.48496 105.42610 36815 ft 453 kts 87°
2026-04-26 09:49 3.48813 105.48885 36815 ft 454 kts 87°
2026-04-26 09:49 3.49129 105.55183 36815 ft 454 kts 87°
2026-04-26 09:50 3.49446 105.61494 36815 ft 453 kts 87°
2026-04-26 09:50 3.49761 105.67776 36815 ft 453 kts 87°
2026-04-26 09:51 3.50075 105.74065 36814 ft 453 kts 87°
2026-04-26 09:51 3.50389 105.80347 36809 ft 454 kts 87°
2026-04-26 09:52 3.50714 105.86662 36802 ft 454 kts 87°
2026-04-26 09:52 3.51203 105.96124 36789 ft 453 kts 87°
2026-04-26 09:53 3.51522 106.02375 36787 ft 454 kts 87°
2026-04-26 09:53 3.51844 106.08707 36793 ft 454 kts 87°
2026-04-26 09:54 3.52163 106.14985 36795 ft 454 kts 87°
2026-04-26 09:54 3.52483 106.21278 36795 ft 455 kts 87°
2026-04-26 09:55 3.52804 106.27612 36794 ft 455 kts 87°
2026-04-26 09:55 3.53123 106.33933 36795 ft 455 kts 87°
2026-04-26 09:56 3.53449 106.40261 36795 ft 455 kts 87°
2026-04-26 09:56 3.53780 106.46586 36795 ft 455 kts 87°
2026-04-26 09:57 3.54106 106.52876 36793 ft 455 kts 87°
2026-04-26 09:57 3.54431 106.59168 36796 ft 455 kts 87°
2026-04-26 09:58 3.54757 106.65518 36799 ft 456 kts 87°
2026-04-26 09:58 3.55083 106.71854 36799 ft 457 kts 87°
2026-04-26 09:59 3.55408 106.78181 36801 ft 456 kts 87°
2026-04-26 09:59 3.55732 106.84518 36802 ft 455 kts 87°
2026-04-26 10:00 3.56211 106.90791 36804 ft 456 kts 83°
2026-04-26 10:00 3.57328 106.97040 36808 ft 456 kts 77°
2026-04-26 10:01 3.58928 107.03222 36810 ft 457 kts 76°
2026-04-26 10:01 3.60541 107.09332 36814 ft 457 kts 76°
2026-04-26 10:02 3.62167 107.15514 36810 ft 457 kts 76°
2026-04-26 10:02 3.63780 107.21655 36811 ft 457 kts 76°
2026-04-26 10:03 3.65387 107.27779 36809 ft 458 kts 76°
2026-04-26 10:03 3.67008 107.33968 36810 ft 457 kts 76°
2026-04-26 10:04 3.68614 107.40099 36810 ft 458 kts 76°
2026-04-26 10:04 3.70236 107.46296 36811 ft 458 kts 76°
2026-04-26 10:05 3.71854 107.52475 36812 ft 458 kts 76°
2026-04-26 10:05 3.73464 107.58627 36814 ft 458 kts 76°
2026-04-26 10:06 3.75067 107.64753 36808 ft 457 kts 76°
2026-04-26 10:06 3.76686 107.70943 36806 ft 458 kts 76°
2026-04-26 10:07 3.78289 107.77071 36795 ft 458 kts 76°
2026-04-26 10:07 3.79900 107.83240 36792 ft 459 kts 76°
2026-04-26 10:08 3.81518 107.89432 36794 ft 459 kts 76°
2026-04-26 10:08 3.83134 107.95621 36793 ft 459 kts 76°
2026-04-26 10:09 3.84743 108.01780 36797 ft 458 kts 76°
2026-04-26 10:09 3.86351 108.07938 36798 ft 458 kts 76°
2026-04-26 10:10 3.87954 108.14084 36797 ft 458 kts 76°
2026-04-26 10:10 3.89568 108.20275 36798 ft 459 kts 76°
2026-04-26 10:11 3.91172 108.26427 36798 ft 459 kts 76°
2026-04-26 10:11 3.92781 108.32603 36798 ft 460 kts 76°
2026-04-26 10:12 3.94391 108.38779 36796 ft 459 kts 76°
2026-04-26 10:12 3.95998 108.44950 36797 ft 459 kts 76°
2026-04-26 10:13 3.97606 108.51128 36797 ft 459 kts 76°
2026-04-26 10:13 3.99219 108.57331 36795 ft 459 kts 76°
2026-04-26 10:14 4.00822 108.63498 36797 ft 459 kts 76°
2026-04-26 10:14 4.02422 108.69654 36799 ft 460 kts 76°
2026-04-26 10:15 4.04049 108.75867 36805 ft 460 kts 76°
2026-04-26 10:15 4.05676 108.82049 36811 ft 460 kts 76°
2026-04-26 10:16 4.07296 108.88219 36813 ft 459 kts 76°
2026-04-26 10:16 4.08912 108.94389 36816 ft 458 kts 76°
2026-04-26 10:17 4.10532 109.00574 36815 ft 458 kts 76°
2026-04-26 10:17 4.12143 109.06726 36814 ft 459 kts 76°
2026-04-26 10:18 4.13755 109.12889 36813 ft 460 kts 76°
2026-04-26 10:18 4.15386 109.19124 36815 ft 460 kts 76°
2026-04-26 10:19 4.17003 109.25307 36816 ft 461 kts 76°
2026-04-26 10:19 4.18625 109.31520 36815 ft 460 kts 76°
2026-04-26 10:20 4.19963 109.36646 36810 ft 460 kts 76°
2026-04-26 10:20 4.21855 109.43893 36806 ft 459 kts 76°
2026-04-26 10:21 4.23469 109.50086 36799 ft 461 kts 76°
2026-04-26 10:21 4.25087 109.56292 36796 ft 460 kts 76°
2026-04-26 10:22 4.26692 109.62476 36795 ft 460 kts 76°
2026-04-26 10:22 4.28286 109.68666 36792 ft 460 kts 76°
2026-04-26 10:23 4.29889 109.74895 36798 ft 461 kts 76°
2026-04-26 10:23 4.31485 109.81110 36791 ft 462 kts 76°
2026-04-26 10:24 4.33081 109.87332 36794 ft 461 kts 76°
2026-04-26 10:24 4.34674 109.93549 36798 ft 460 kts 75°
2026-04-26 10:25 4.36255 109.99714 36799 ft 460 kts 75°
2026-04-26 10:25 4.37854 110.05946 36795 ft 460 kts 75°
2026-04-26 10:26 4.39438 110.12129 36798 ft 460 kts 75°
2026-04-26 10:26 4.41025 110.18319 36794 ft 461 kts 75°
2026-04-26 10:27 4.42635 110.24597 36800 ft 465 kts 75°
2026-04-26 10:27 4.44238 110.30858 36805 ft 464 kts 75°
2026-04-26 10:28 4.45829 110.37090 36811 ft 461 kts 75°
2026-04-26 10:28 4.47417 110.43304 36810 ft 461 kts 75°
2026-04-26 10:29 4.49007 110.49517 36815 ft 462 kts 75°
2026-04-26 10:29 4.50600 110.55736 36814 ft 463 kts 75°
2026-04-26 10:30 4.52208 110.62032 36815 ft 466 kts 75°
2026-04-26 10:30 4.53818 110.68332 36812 ft 466 kts 75°
2026-04-26 10:31 4.55423 110.74623 36816 ft 467 kts 75°
2026-04-26 10:31 4.57029 110.80917 36816 ft 466 kts 75°
2026-04-26 10:32 4.58631 110.87195 36815 ft 466 kts 75°
2026-04-26 10:32 4.60232 110.93468 36815 ft 466 kts 75°
2026-04-26 10:33 4.61836 110.99757 36815 ft 466 kts 75°
2026-04-26 10:33 4.63436 111.06042 36815 ft 466 kts 75°
2026-04-26 10:34 4.65033 111.12313 36815 ft 466 kts 75°
2026-04-26 10:34 4.66637 111.18617 36814 ft 466 kts 75°
2026-04-26 10:35 4.68233 111.24889 36809 ft 466 kts 75°
2026-04-26 10:35 4.69830 111.31161 36806 ft 465 kts 75°
2026-04-26 10:36 4.71430 111.37450 36796 ft 465 kts 75°
2026-04-26 10:36 4.73018 111.43700 36795 ft 465 kts 75°
2026-04-26 10:37 4.74612 111.49973 36795 ft 465 kts 75°
2026-04-26 10:37 4.76207 111.56255 36793 ft 465 kts 75°
2026-04-26 10:38 4.77806 111.62556 36794 ft 465 kts 75°
2026-04-26 10:38 4.79396 111.68825 36793 ft 465 kts 75°
2026-04-26 10:39 4.80987 111.75101 36793 ft 465 kts 75°
2026-04-26 10:39 4.82575 111.81368 36793 ft 465 kts 75°
2026-04-26 10:40 4.84175 111.87652 36794 ft 465 kts 75°
2026-04-26 10:40 4.85802 111.93899 36797 ft 465 kts 75°
2026-04-26 10:41 4.87432 112.00159 36805 ft 465 kts 75°
2026-04-26 10:41 4.89054 112.06403 36811 ft 465 kts 75°
2026-04-26 10:42 4.90679 112.12667 36812 ft 465 kts 75°
2026-04-26 10:42 4.92299 112.18919 36813 ft 465 kts 75°
2026-04-26 10:43 4.93921 112.25181 36815 ft 465 kts 75°
2026-04-26 10:43 4.95539 112.31435 36813 ft 465 kts 75°
2026-04-26 10:44 4.97164 112.37720 36809 ft 465 kts 75°
2026-04-26 10:44 4.98780 112.43971 36808 ft 465 kts 75°
2026-04-26 10:45 5.00395 112.50213 36807 ft 465 kts 75°
2026-04-26 10:45 5.02008 112.56454 36812 ft 465 kts 75°
2026-04-26 10:46 5.03636 112.62757 36809 ft 465 kts 75°
2026-04-26 10:46 5.05249 112.69002 36801 ft 464 kts 75°
2026-04-26 10:47 5.06864 112.75266 36800 ft 464 kts 75°
2026-04-26 10:47 5.08477 112.81513 36800 ft 464 kts 75°
2026-04-26 10:48 5.10092 112.87778 36798 ft 464 kts 75°
2026-04-26 10:48 5.11698 112.94010 36797 ft 464 kts 75°
2026-04-26 10:49 5.13308 113.00259 36798 ft 465 kts 75°
2026-04-26 10:49 5.14923 113.06527 36800 ft 464 kts 75°
2026-04-26 10:50 5.16263 113.11729 36797 ft 464 kts 75°
2026-04-26 10:50 5.18136 113.19016 36794 ft 464 kts 75°
2026-04-26 10:51 5.20553 113.28416 36795 ft 464 kts 75°
2026-04-26 10:52 5.22159 113.34661 36795 ft 464 kts 75°
2026-04-26 10:52 5.23760 113.40895 36795 ft 464 kts 75°
2026-04-26 10:53 5.25375 113.47186 36797 ft 464 kts 75°
2026-04-26 10:53 5.26971 113.53402 36798 ft 464 kts 75°
2026-04-26 10:54 5.29378 113.62788 36796 ft 459 kts 75°
2026-04-26 10:54 5.30163 113.65853 36796 ft 442 kts 75°
2026-04-26 10:54 5.30908 113.68764 36797 ft 427 kts 75°
2026-04-26 10:55 5.32376 113.74486 36803 ft 422 kts 75°
2026-04-26 10:55 5.33824 113.80144 36804 ft 423 kts 75°
2026-04-26 10:56 5.35292 113.85883 36802 ft 423 kts 75°
2026-04-26 10:56 5.36736 113.91523 36468 ft 417 kts 75°
2026-04-26 10:57 5.37460 113.94345 35941 ft 414 kts 75°
2026-04-26 10:57 5.38167 113.97100 35425 ft 410 kts 76°
2026-04-26 10:57 5.38879 113.99881 34980 ft 405 kts 76°
2026-04-26 10:57 5.39563 114.02560 34552 ft 400 kts 76°
2026-04-26 10:58 5.40248 114.05248 34095 ft 396 kts 76°
2026-04-26 10:58 5.40930 114.07922 33623 ft 392 kts 77°
2026-04-26 10:58 5.41600 114.10545 33160 ft 388 kts 77°
2026-04-26 10:58 5.42268 114.13161 32691 ft 385 kts 77°
2026-04-26 10:59 5.42925 114.15735 32274 ft 381 kts 77°
2026-04-26 10:59 5.43580 114.18307 31875 ft 377 kts 77°
2026-04-26 10:59 5.44227 114.20856 31474 ft 374 kts 77°
2026-04-26 10:59 5.44866 114.23368 31095 ft 369 kts 77°
2026-04-26 11:00 5.45498 114.25856 30710 ft 366 kts 77°
2026-04-26 11:00 5.46118 114.28301 30301 ft 363 kts 76°
2026-04-26 11:00 5.46733 114.30722 29908 ft 359 kts 77°
2026-04-26 11:00 5.47352 114.33161 29526 ft 356 kts 76°
2026-04-26 11:01 5.47958 114.35548 29141 ft 352 kts 76°
2026-04-26 11:01 5.48550 114.37881 28769 ft 349 kts 76°
2026-04-26 11:01 5.49149 114.40242 28382 ft 346 kts 76°
2026-04-26 11:01 5.49744 114.42584 27986 ft 343 kts 76°
2026-04-26 11:02 5.50330 114.44894 27605 ft 340 kts 76°
2026-04-26 11:02 5.50912 114.47189 27224 ft 337 kts 76°
2026-04-26 11:02 5.51484 114.49443 26843 ft 334 kts 76°
2026-04-26 11:02 5.52053 114.51690 26462 ft 331 kts 76°
2026-04-26 11:03 5.52614 114.53901 26079 ft 329 kts 76°
2026-04-26 11:03 5.53174 114.56110 25692 ft 326 kts 76°
2026-04-26 11:03 5.53730 114.58304 25320 ft 323 kts 76°
2026-04-26 11:03 5.54289 114.60510 24958 ft 320 kts 76°
2026-04-26 11:04 5.54832 114.62657 24599 ft 318 kts 75°
2026-04-26 11:04 5.55377 114.64811 24219 ft 316 kts 75°
2026-04-26 11:04 5.55917 114.66939 23855 ft 313 kts 75°
2026-04-26 11:04 5.56446 114.69030 23527 ft 310 kts 75°
2026-04-26 11:05 5.56960 114.71062 23205 ft 307 kts 75°
2026-04-26 11:05 5.57478 114.73105 22866 ft 304 kts 75°
2026-04-26 11:05 5.58000 114.75170 22529 ft 302 kts 75°
2026-04-26 11:05 5.58512 114.77193 22199 ft 299 kts 75°
2026-04-26 11:06 5.59023 114.79210 21859 ft 297 kts 75°
2026-04-26 11:06 5.59533 114.81217 21513 ft 295 kts 75°
2026-04-26 11:06 5.60037 114.83205 21179 ft 293 kts 75°
2026-04-26 11:06 5.60541 114.85199 20850 ft 291 kts 75°
2026-04-26 11:07 5.61033 114.87141 20518 ft 289 kts 76°
2026-04-26 11:07 5.61529 114.89106 20179 ft 287 kts 76°
2026-04-26 11:07 5.62017 114.91035 19843 ft 286 kts 76°
2026-04-26 11:07 5.62505 114.92966 19514 ft 284 kts 76°
2026-04-26 11:08 5.62991 114.94888 19192 ft 282 kts 76°
2026-04-26 11:08 5.63464 114.96760 18884 ft 279 kts 76°
2026-04-26 11:08 5.63943 114.98657 18556 ft 277 kts 76°
2026-04-26 11:08 5.64412 115.00517 18236 ft 275 kts 76°
2026-04-26 11:09 5.64884 115.02386 17894 ft 274 kts 76°
2026-04-26 11:09 5.65353 115.04245 17553 ft 273 kts 77°
2026-04-26 11:09 5.65817 115.06081 17225 ft 271 kts 77°
2026-04-26 11:09 5.66274 115.07898 16895 ft 270 kts 77°
2026-04-26 11:10 5.66733 115.09720 16557 ft 269 kts 77°
2026-04-26 11:10 5.67192 115.11541 16227 ft 268 kts 76°
2026-04-26 11:10 5.67646 115.13344 15902 ft 266 kts 76°
2026-04-26 11:10 5.68103 115.15154 15575 ft 265 kts 76°
2026-04-26 11:11 5.68563 115.16914 15254 ft 264 kts 75°
2026-04-26 11:11 5.69086 115.18685 14938 ft 262 kts 74°
2026-04-26 11:11 5.69604 115.20417 14623 ft 260 kts 73°
2026-04-26 11:11 5.70125 115.22158 14300 ft 258 kts 73°
2026-04-26 11:12 5.70643 115.23891 13967 ft 258 kts 73°
2026-04-26 11:12 5.71150 115.25589 13650 ft 256 kts 73°
2026-04-26 11:12 5.71661 115.27301 13327 ft 255 kts 73°
2026-04-26 11:12 5.72169 115.29004 13002 ft 254 kts 73°
2026-04-26 11:13 5.72679 115.30709 12681 ft 253 kts 73°
2026-04-26 11:13 5.73182 115.32390 12361 ft 252 kts 73°
2026-04-26 11:13 5.73685 115.34073 12043 ft 251 kts 73°
2026-04-26 11:13 5.74184 115.35744 11734 ft 249 kts 74°
2026-04-26 11:14 5.74611 115.37418 11419 ft 248 kts 78°
2026-04-26 11:14 5.74898 115.39115 11094 ft 247 kts 83°
2026-04-26 11:14 5.75044 115.40836 10776 ft 246 kts 88°
2026-04-26 11:14 5.75081 115.42551 10467 ft 245 kts 89°
2026-04-26 11:15 5.75106 115.44247 10161 ft 243 kts 89°
2026-04-26 11:15 5.75130 115.45934 9853 ft 242 kts 88°
2026-04-26 11:15 5.75156 115.47636 9544 ft 241 kts 89°
2026-04-26 11:15 5.75182 115.49312 9231 ft 240 kts 89°
2026-04-26 11:16 5.75209 115.50973 8927 ft 238 kts 89°
2026-04-26 11:16 5.75235 115.52625 8611 ft 238 kts 89°
2026-04-26 11:16 5.75262 115.54287 8298 ft 237 kts 89°
2026-04-26 11:16 5.75288 115.55931 7992 ft 236 kts 89°
2026-04-26 11:17 5.75314 115.57579 7672 ft 235 kts 89°
2026-04-26 11:17 5.75340 115.59212 7364 ft 234 kts 89°
2026-04-26 11:17 5.75366 115.60858 7057 ft 233 kts 89°
2026-04-26 11:17 5.75391 115.62472 6759 ft 232 kts 90°
2026-04-26 11:18 5.75417 115.64101 6444 ft 231 kts 90°
2026-04-26 11:18 5.75443 115.65712 6140 ft 231 kts 90°
2026-04-26 11:18 5.75467 115.67316 5844 ft 230 kts 90°
2026-04-26 11:18 5.75491 115.68915 5534 ft 230 kts 90°
2026-04-26 11:19 5.75516 115.70534 5225 ft 230 kts 90°
2026-04-26 11:19 5.75540 115.72111 4935 ft 229 kts 90°
2026-04-26 11:19 5.75565 115.73718 4673 ft 226 kts 89°
2026-04-26 11:19 5.75588 115.75267 4525 ft 218 kts 89°
2026-04-26 11:20 5.75611 115.76762 4376 ft 211 kts 89°
2026-04-26 11:20 5.75626 115.77755 4240 ft 208 kts 89°
2026-04-26 11:20 5.75656 115.79681 3885 ft 206 kts 88°
2026-04-26 11:20 5.75679 115.81111 3603 ft 206 kts 88°
2026-04-26 11:21 5.75700 115.82515 3476 ft 195 kts 88°
2026-04-26 11:21 5.75693 115.83857 3311 ft 185 kts 92°
2026-04-26 11:21 5.75514 115.85097 3134 ft 177 kts 101°
2026-04-26 11:21 5.75161 115.86247 2978 ft 167 kts 108°
2026-04-26 11:22 5.74742 115.87301 2798 ft 157 kts 110°
2026-04-26 11:22 5.74331 115.88316 2776 ft 157 kts 110°
2026-04-26 11:22 5.73915 115.89344 2771 ft 158 kts 109°
2026-04-26 11:22 5.73502 115.90369 2770 ft 158 kts 109°
2026-04-26 11:23 5.73094 115.91386 2771 ft 158 kts 109°
2026-04-26 11:23 5.72681 115.92413 2773 ft 157 kts 109°
2026-04-26 11:23 5.72274 115.93429 2776 ft 157 kts 109°
2026-04-26 11:23 5.72021 115.94473 2774 ft 148 kts 88°
2026-04-26 11:24 5.72281 115.95428 2752 ft 142 kts 53°
2026-04-26 11:24 5.73002 115.96111 2777 ft 142 kts 34°
2026-04-26 11:24 5.73858 115.96626 2771 ft 142 kts 27°
2026-04-26 11:24 5.74751 115.97061 2770 ft 143 kts 25°
2026-04-26 11:25 5.75664 115.97472 2770 ft 142 kts 24°
2026-04-26 11:25 5.76574 115.97870 2767 ft 142 kts 24°
2026-04-26 11:25 5.77496 115.98266 2768 ft 142 kts 24°
2026-04-26 11:25 5.78405 115.98653 2709 ft 143 kts 24°
2026-04-26 11:26 5.79327 115.99044 2527 ft 142 kts 24°
2026-04-26 11:26 5.80238 115.99429 2352 ft 142 kts 24°
2026-04-26 11:26 5.81149 115.99813 2176 ft 141 kts 24°
2026-04-26 11:26 5.82060 116.00197 2000 ft 141 kts 24°
2026-04-26 11:27 5.82958 116.00575 1824 ft 140 kts 24°
2026-04-26 11:27 5.83867 116.00959 1642 ft 140 kts 23°
2026-04-26 11:27 5.84769 116.01341 1463 ft 140 kts 22°
2026-04-26 11:27 5.85672 116.01720 1283 ft 139 kts 24°
2026-04-26 11:28 5.86566 116.02099 1105 ft 139 kts 22°
2026-04-26 11:28 5.87453 116.02474 932 ft 139 kts 22°
2026-04-26 11:28 5.88352 116.02852 751 ft 138 kts 24°
2026-04-26 11:28 5.89243 116.03226 576 ft 138 kts 22°
2026-04-26 11:29 5.90126 116.03590 440 ft 137 kts 24°
2026-04-26 11:29 5.91006 116.03975 280 ft 137 kts 21°
2026-04-26 11:29 5.91902 116.04342 115 ft 136 kts 24°
2026-04-26 11:29 5.92718 116.04708 34 ft 120 kts 24°
2026-04-26 11:30 5.93370 116.04970 32 ft 75 kts 22°
2026-04-26 11:30 5.93620 116.05079 32 ft 42 kts 25°
2026-04-26 11:30 5.93740 116.05129 32 ft 3 kts 22°
2026-04-26 11:30 5.93811 116.05158 32 ft 17 kts 23°
2026-04-26 11:31 5.93933 116.05231 32 ft 23 kts 45°
2026-04-26 11:31 5.94011 116.05328 32 ft 6 kts 53°
2026-04-26 11:31 5.94042 116.05370 32 ft 7 kts 53°
2026-04-26 11:31 5.94069 116.05418 32 ft 8 kts 99°
2026-04-26 11:32 5.94015 116.05430 32 ft 9 kts 201°
2026-04-26 11:32 5.93949 116.05404 32 ft 10 kts 202°
2026-04-26 11:32 5.93877 116.05373 33 ft 11 kts 203°
2026-04-26 11:32 5.93799 116.05340 33 ft 12 kts 202°
2026-04-26 11:33 5.93716 116.05306 33 ft 13 kts 203°
2026-04-26 11:33 5.93628 116.05267 33 ft 13 kts 203°
2026-04-26 11:33 5.93537 116.05229 33 ft 14 kts 202°
2026-04-26 11:33 5.93442 116.05190 33 ft 15 kts 203°
2026-04-26 11:34 5.93343 116.05148 33 ft 15 kts 203°
2026-04-26 11:34 5.93244 116.05106 33 ft 15 kts 202°
2026-04-26 11:34 5.93141 116.05063 33 ft 16 kts 203°
2026-04-26 11:34 5.93037 116.05019 33 ft 16 kts 202°
2026-04-26 11:35 5.92931 116.04974 33 ft 16 kts 203°
2026-04-26 11:35 5.92844 116.05005 33 ft 11 kts 113°
2026-04-26 11:35 5.92780 116.05033 34 ft 11 kts 199°
2026-04-26 11:35 5.92699 116.05000 34 ft 12 kts 203°
2026-04-26 11:36 5.92635 116.04972 34 ft 8 kts 203°
2026-04-26 11:36 5.92577 116.04949 34 ft 8 kts 183°
2026-04-26 11:36 5.92545 116.04981 34 ft 1 kts 115°
2026-04-26 11:37 5.92541 116.04989 34 ft 2 kts 115°
2026-04-26 11:37 5.92534 116.05005 34 ft 2 kts 113°
2026-04-26 11:37 5.92532 116.05011 34 ft 0 kts 113°